Location: Kumla
(59.1265°N, 15.1401°E)
Time: 01:01:44
(UTC+01:00)

Tiros 1 despin weight - Pass Details

Date: 11 December 2023
Orbit: 581 x 624 km, 48.2° (Epoch: 01 March)

Event Time Altitude Azimuth Distance (km) Brightness Sun altitude
Rises 16:20:02 0° 212° (SSW) 2,813 ? -8.6°
Reaches altitude 10° 16:23:24 10° 185° (S) 1,906 ? -9.0°
Maximum altitude 16:25:26 13° 157° (SSE) 1,709 ? -9.2°
Drops below altitude 10° 16:27:27 10° 129° (SE) 1,902 ? -9.4°
Enters shadow 16:29:49 - 108° (ESE) 2,491 ? -9.7°
